Weather in Dolakovo

Russia / Republic of Ingushetia     43°14′17″N   44°36′10″E
temp.,
°C
wind,
m/s
gust,
m/s
humid.,
%
clouds,
%
prec.,
mm/h
press.,
hPa
HPBL,
m
13 august, sat
sat1300:00+18sw11860 1.3 101318
03:00+17w11900 1.3 101211
06:00+18wsw11900 0.0 101234
09:00+25n01640 0.0 1011495
12:00+31ene23384 0.0 10091708
15:00+33n12330 0.0 10072138
18:00+31w22410 0.0 100659
21:00+23ene47420 0.0 1008121
14 august, sun
sun1400:00+21sw01560 0.0 100811
03:00+18wsw11630 0.0 100711
06:00+19wnw11630 0.0 100713
09:00+26w21414 0.0 1006466
12:00+33wsw12280 0.0 10051325
15:00+34sw33250 0.0 10031756
18:00+31sw34370 0.0 1004124
21:00+24ese11480 0.0 100513
15 august, mon
mon1500:00+22s11550 0.0 100511
03:00+20w01590 0.0 100511
06:00+20wsw11610 0.0 100711
09:00+28wnw11390 0.0 1006497
12:00+35ssw02250 0.0 10041515
15:00+36wsw12230 0.0 10031734
18:00+32sw33350 0.0 100390
21:00+26e11440 0.0 100511
16 august, tue
tue1600:00+23sw11490 0.0 100611
03:00+21w11550 0.0 100711
06:00+20wsw11560 0.0 100815
09:00+28w33360 0.0 1007487
12:00+34w32250 0.0 10061338
15:00+37sw32210 0.0 10061774
18:00+34ssw34300 0.0 1006122
21:00+26s11450 0.0 100811
17 august, wed
wed1700:00+24sw22490 0.0 100912
03:00+23sw11450 0.0 100912
06:00+23sw11470 0.0 101012
09:00+31wnw22340 0.0 1008621
12:00+36wnw22240 0.0 10071743
15:00+38wsw33210 0.0 10051984
18:00+34sw34320 0.0 1005107
21:00+27sse22460 0.0 100612